Location: Del Amo
(33.8464°N, 118.2104°W)
Time: 12:09:22
(UTC+00:00)

Envisat - Visible Passes

Search period start: 08 May 2026 00:00
Search period end: 18 May 2026 00:00
Orbit: 761 x 762 km, 98.4° (Epoch: 8 May)

Date Brightness Start Highest point End Pass type
(mag) Time Alt. Az. Time Alt. Az. Time Alt. Az.
8 May 3.4 10:06:57 10° NNE 10:11:55 54° E 10:11:55 54° E visible
8 May 4.8 11:47:34 10° NNW 11:50:19 15° WNW 11:52:02 13° W visible
9 May 4.9 09:30:04 10° NE 09:33:43 22° E 09:33:43 22° E visible
9 May 3.7 11:08:19 10° N 11:12:53 35° WNW 11:13:50 32° W visible
10 May 2.8 10:30:08 10° NNE 10:35:13 85° WNW 10:35:38 75° SSW visible
11 May 4.0 09:52:40 10° NNE 09:57:22 38° E 09:57:26 38° E visible
11 May 4.4 11:32:18 10° NNW 11:35:58 21° WNW 11:37:34 18° W visible
12 May 5.3 09:16:23 10° ENE 09:19:14 15° E 09:19:14 15° E visible
12 May 3.3 10:53:35 10° N 10:58:27 49° WNW 10:59:21 43° WSW visible
13 May 3.1 10:15:40 10° NNE 10:20:43 68° ESE 10:21:09 64° SE visible
13 May 5.0 11:57:08 10° NW 11:58:59 12° WNW 12:00:51 10° W visible
14 May 4.5 09:38:32 10° NE 09:42:47 27° E 09:42:56 27° E visible
14 May 4.1 11:17:19 10° NNW 11:21:36 28° WNW 11:23:04 24° W visible
15 May 5.6 09:03:53 10° E 09:04:41 10° E 09:04:43 10° E visible
15 May 2.9 10:38:57 10° N 10:43:59 69° WNW 10:44:51 57° SW visible
16 May 3.6 10:01:18 10° NNE 10:06:11 47° E 10:06:39 46° ESE visible
16 May 4.7 11:41:30 10° NNW 11:44:40 17° WNW 11:46:46 13° W visible
17 May 5.0 09:24:36 10° NE 09:28:11 19° E 09:28:26 19° E visible
17 May 3.6 11:02:30 10° N 11:07:11 39° WNW 11:08:33 33° WSW visible
